| time (UTC) | temp F | wind direction | speed MPH | gust MPH | rain 1hr in | rain 24hr in | rain mn in | humidity % | barometer mb |
| 20260507022046 | 54 | 230 | 7.0 | 0.0 | 0.00 | 0.00 | 0.00 | 81 | |
| 20260507012148 | 54 | 240 | 7.0 | 0.0 | 0.00 | 0.00 | 0.00 | 87 | |
| 20260507002048 | 55 | 260 | 12.0 | 0.0 | 0.00 | 0.00 | 0.00 | 76 | |
| 20260506232049 | 57 | 290 | 12.0 | 0.0 | 0.00 | 0.00 | 0.00 | 71 | |
| 20260506222320 | 59 | 260 | 9.0 | 0.0 | 0.00 | 0.00 | 0.00 | 72 | |
| 20260506212110 | 61 | 140 | 7.0 | 0.0 | 0.00 | 0.00 | 0.00 | 59 | |
| 20260506202122 | 64 | 130 | 9.0 | 0.0 | 0.00 | 0.00 | 0.00 | 55 | |
| 20260506192241 | 66 | 120 | 12.0 | 0.0 | 0.00 | 0.00 | 0.00 | 48 | |
| 20260506182138 | 68 | 120 | 14.0 | 0.0 | 0.00 | 0.00 | 0.00 | 45 | |
| 20260506172103 | 70 | 120 | 16.0 | 0.0 | 0.00 | 0.00 | 0.00 | 43 | |
| 20260506162321 | 72 | 130 | 18.0 | 0.0 | 0.00 | 0.00 | 0.00 | 40 | |
| 20260506152137 | 72 | 130 | 18.0 | 29.0 | 0.00 | 0.00 | 0.00 | 37 | |
| 20260506142104 | 73 | 130 | 18.0 | 0.0 | 0.00 | 0.00 | 0.00 | 38 | |
| 20260506132105 | 72 | 130 | 18.0 | 31.0 | 0.00 | 0.00 | 0.00 | 43 | |
| 20260506122104 | 70 | 170 | 14.0 | 0.0 | 0.00 | 0.00 | 0.00 | 43 | |
| 20260506112049 | 72 | 140 | 12.0 | 0.0 | 0.00 | 0.00 | 0.00 | 40 | |
| 20260506102251 | 72 | 190 | 12.0 | 0.0 | 0.00 | 0.00 | 0.00 | 37 | |
| 20260506092035 | 66 | 210 | 7.0 | 0.0 | 0.00 | 0.00 | 0.00 | 48 | |
| 20260506082049 | 64 | 200 | 9.0 | 0.0 | 0.00 | 0.00 | 0.00 | 55 | |
| 20260506072051 | 63 | 230 | 7.0 | 0.0 | 0.00 | 0.00 | 0.00 | 63 | |
| 20260506062124 | 59 | 240 | 7.0 | 0.0 | 0.00 | 0.00 | 0.00 | 72 | |
| 20260506042305 | 52 | 220 | 7.0 | 0.0 | 0.00 | 0.00 | 0.00 | 87 | |
| 20260506032051 | 55 | 280 | 5.0 | 0.0 | 0.00 | 0.00 | 0.00 | 82 |